Location: Chenereilles
(45.4866°N, 4.0790°E)
Time: 10:54:15
(UTC+00:00)

YAOGAN 6 - Pass Details

Date: 12 November 2019
Orbit: 467 x 504 km, 97.0° (Epoch: 12 December)

Event Time Altitude Azimuth Distance (km) Brightness Sun altitude
Rises 17:57:28 0° 169° (S) 2,512 6.2 -17.7°
Reaches altitude 10° 17:59:31 10° 171° (S) 1,635 5.2 -18.0°
Maximum altitude 18:03:02 79° 259° (W) 486 2.5 -18.6°
Drops below altitude 10° 18:06:33 10° 346° (NNW) 1,637 5.3 -19.3°
Sets 18:08:36 0° 347° (NNW) 2,517 6.3 -19.6°
